This demonstration page uses our WeatherBlox Daily Observations layout. Learn more.

Left ArrowRight Arrow

Hourly Observations for June 9, 2016

Temp ( °F °C ) Dew Point ( °F °C ) Humidity (%) Winds ( mph kmh ) Pressure ( in mb ) Visibility ( mi km ) Precip ( " mm )
12:54 am 00:54 Clear 76 24.4 64 17.8 67 67 SSE 9 15 29.77 1008 10 16.0934 0 0
1:54 am 01:54 Clear 73 22.8 62 16.7 69 69 SSE 9 15 29.76 1008 10 16.0934 0 0
2:54 am 02:54 Clear 75 23.9 59 15 58 58 S 12 19 29.76 1008 10 16.0934 0 0
3:54 am 03:54 Clear 73 22.8 59 15 62 62 S 10 17 29.75 1008 10 16.0934 0 0
4:54 am 04:54 Clear 73 22.8 58 14.4 59 59 S 10 17 29.76 1008 10 16.0934 0 0
5:54 am 05:54 Clear 74 23.3 58 14.4 57 57 S 9 15 29.78 1008 8 12.87472 0 0
6:54 am 06:54 Sunny 75 23.9 59 15 58 58 SSW 7 11 29.79 1009 10 16.0934 0 0
7:54 am 07:54 Sunny 77 25 61 16.1 58 58 S 10 17 29.78 1009 10 16.0934 0 0
8:54 am 08:54 Sunny 80 26.7 61 16.1 52 52 SSW 15 24 29.78 1009 10 16.0934 0 0
9:54 am 09:54 Sunny 84 28.9 61 16.1 46 46 SSW 21 33 29.78 1009 10 16.0934 0 0
10:54 am 10:54 Sunny 88 31.1 61 16.1 40 40 SW 24 39 29.77 1008 10 16.0934 0 0
11:54 am 11:54 Sunny 90 32.2 61 16.1 38 38 SW 24 39 29.77 1008 10 16.0934 0 0
12:54 pm 12:54 Sunny 92 33.3 62 16.7 37 37 SW 22 35 29.75 1008 10 16.0934 0 0
1:54 pm 13:54 Sunny 94 34.4 62 16.7 35 35 SSW 23 37 29.73 1007 10 16.0934 0 0
2:54 pm 14:54 Sunny 95 35 63 17.2 35 35 S 26 43 29.72 1007 10 16.0934 0 0
3:54 pm 15:54 Sunny 96 35.6 63 17.2 34 34 S 20 31 29.71 1006 10 16.0934 0 0
4:54 pm 16:54 Sunny 96 35.6 64 17.8 35 35 SSW 15 24 29.72 1006 10 16.0934 0 0
5:54 pm 17:54 Sunny 94 34.4 63 17.2 36 36 S 20 31 29.71 1006 10 16.0934 0 0
6:54 pm 18:54 Sunny 93 33.9 63 17.2 37 37 SSW 16 26 29.7 1006 10 16.0934 0 0
7:54 pm 19:54 Sunny 90 32.2 64 17.8 42 42 S 12 19 29.71 1006 10 16.0934 0 0
8:54 pm 20:54 Sunny 87 30.6 64 17.8 46 46 S 13 20 29.72 1006 10 16.0934 0 0
9:54 pm 21:54 Clear 84 28.9 62 16.7 48 48 S 15 24 29.74 1007 10 16.0934 0 0
10:54 pm 22:54 Clear 82 27.8 62 16.7 51 51 S 17 28 29.76 1008 10 16.0934 0 0
11:54 pm 23:54 Clear 81 27.2 62 16.7 53 53 S 16 26 29.75 1008 10 16.0934 0 0

Powered by AerisWeather